Regional Weather Roundup
Issued by NWS

Home | Current Version | Previous Version | Graphics & Text | Print | Product List | Glossary On
Versions: 1 2 3 4 5 6 7 8 9 10 11 12 13 14 15 16 17 18 19 20 21 22 23 24 25 26 27 28 29 30 31 32 33 34 35 36 37 38 39 40 41 42 43 44 45 46 47 48 49 50
910
ASUS45 KBOU 252010
RWRCO

WEATHER ROUNDUP FOR COLORADO
NATIONAL WEATHER SERVICE DENVER/BOULDER CO
200 PM MDT SUN SEP 25 2016

NOTE: "FAIR" INDICATES FEW OR NO CLOUDS BELOW 12000 FEET WITH NO
SIGNIFICANT WEATHER AND/OR OBSTRUCTIONS TO VISIBILITY.

COZ001>005-013-030-031-252100-
...NORTHWEST COLORADO...

CITY           SKY/WX    TMP DP  RH WIND       PRES   REMARKS
CRAIG          FAIR      60  34  37 NW7       30.48F
HAYDEN         FAIR      55  28  35 SE3       30.48F
MEEKER         FAIR      59  36  42 SW8       30.47F
MOUNT WERNER   NOT AVBL
STEAMBOAT SPGS FAIR      55  30  38 SW5       30.48F
WALDEN           N/A     54  21  28 W6        30.51F
$$

COZ006>008-011-252100-
...WEST CENTRAL VALLEYS...

CITY           SKY/WX    TMP DP  RH WIND       PRES   REMARKS
GRAND JUNCTION FAIR      65  37  35 VRB3      30.40F
MONTROSE       FAIR      61  39  44 NE8       30.45F
EAGLE          SUNNY     61  27  27 CALM      30.46F
RIFLE          FAIR      64  33  31 CALM      30.43F
DELTA          FAIR      67  34  29 SW6       30.42F
NUCLA          FAIR      64  32  29 W5        30.44F
$$

COZ017>023-064>068-252100-
...SOUTHWEST COLORADO...

CITY           SKY/WX    TMP DP  RH WIND       PRES   REMARKS
DURANGO        FAIR      67  29  24 CALM      30.38F
CORTEZ         FAIR      70  35  27 VRB3      30.36F
PAGOSA SPRINGS FAIR      64  23  21 NE3       30.43F
TELLURIDE      FAIR      56  34  43 W8        30.53F
WOLF CREEK PAS FAIR      45  28  53 SW12G18   30.66F
$$

COZ009-010-012-014-032>034-037-058>063-252100-
...CENTRAL COLORADO...

CITY           SKY/WX    TMP DP  RH WIND       PRES   REMARKS
ASPEN          FAIR      60  28  29 N7        30.47F
BUENA VISTA    FAIR      60  25  26 W3        30.45F
COPPER MTN     FAIR      46  23  39 NW9       30.64F
BERTHOUD PASS  FAIR      32  19  59 N14G20    30.66S WCI  22
COTTONWOOD PAS FAIR      57  23  26 NE3       30.54F
GUNNISON       FAIR      57  28  33 SW5       30.47F
KREMMLING      FAIR      61  23  23 CALM      30.48F
LEADVILLE      FAIR      54  18  24 MISG      30.51F
MONARCH PASS   FAIR      43  27  52 SW8       30.74F
SALIDA         FAIR      64  29  26 SE6       30.50F
SUNLIGHT       FAIR      43  36  75 NW3       30.66S
WILKERSON PASS FAIR      46  23  39 W6        30.63F
$$

COZ069>075-252100-
...SAN LUIS VALLEY/SANGRE DE CRISTO MOUNTAINS...

CITY           SKY/WX    TMP DP  RH WIND       PRES   REMARKS
ALAMOSA        FAIR      64  28  25 VRB3      30.43F
LA VETA PASS   FAIR      50  30  46 MISG      30.57F
SAGUACHE       NOT AVBL
$$

COZ035-036-038>040-252100-
...NORTHERN COLORADO FRONT RANGE...

CITY           SKY/WX    TMP DP  RH WIND       PRES   REMARKS
DENVER INTL AP FAIR      64  30  27 CALM      30.39F
DMNS CITY PARK NOT AVBL
AURORA         MOSUNNY   64  30  27 NE6       30.40F
FRONT RANGE AP MOSUNNY   64  30  27 E7        30.40F
ERIE MUNI ARPT FAIR      66  30  25 SE5       30.38F
BOULDER MUN AP FAIR      64  32  29 E8        30.38F
CENTENNIAL     FAIR      62  29  28 VRB5      30.40F
BROOMFIELD     MOSUNNY   64  30  27 SE7       30.41F
FORT COLLINS   FAIR      64  34  32 CALM      30.38F
LONGMONT       FAIR      69  34  26 E3        30.39F
$$

COZ041-046-047-076>085-087-088-252100-
...PIKES PEAK/PALMER DIVIDE AND SOUTHERN FOOTHILLS...

CITY           SKY/WX    TMP DP  RH WIND       PRES   REMARKS
COLO. SPRINGS  FAIR      63  30  28 S7        30.43F
A. F. ACADEMY  FAIR      61  29  29 SW3       30.42F
SCHRIEVER AFB  NOT AVBL
ELLICOTT       NOT AVBL
FALCON         FAIR      62  29  29 SW7       30.45F
FORT CARSON    FAIR      64  30  28 VRB7G17   30.40F
LIMON          FAIR      64  28  25 N7G18     30.40F
MONUMENT HILL  FAIR      57  30  35 SW5       30.46F
TRINIDAD       FAIR      64  29  26 E9        30.42F
$$

COZ042>045-048>051-090-091-252100-
...NORTHEAST COLORADO...

CITY           SKY/WX    TMP DP  RH WIND       PRES   REMARKS
GREELEY ARPT   FAIR      64  32  29 NW6       30.39F
AKRON          FAIR      65  29  25 NW13G24   30.38F
BURLINGTON     FAIR      68  32  26 N16G24    30.35F
WRAY           NOT AVBL
STERLING       FAIR      68  34  28 NW16G22   30.35F
HOLYOKE        FAIR      72  32  23 NW22G32   30.34F
FORT MORGAN    FAIR      69  26  20 N12G17    30.38F
$$

COZ086-089-092>099-252100-
...SOUTHEAST COLORADO...

CITY           SKY/WX    TMP DP  RH WIND       PRES   REMARKS
PUEBLO         FAIR      69  31  24 S13       30.37F
LA JUNTA       FAIR      71  30  21 E7        30.36F
LAMAR          FAIR      73  31  21 N10G18    30.33F
SPRINGFIELD    NOT AVBL
$$




USA.gov is the U.S. government's official web portal to all federal, state and local government web resources and services.